User: anonymous   Login
Location: Oronoko Observatory
(41.9167°N, 86.3833°W)
Time: 03:24:42
(UTC-05:00)
Language:

PAYLOAD A - Orbit

View from above orbital plane
View from above orbital plane
View from above satellite
View from above satellite

Ground track
Ground track

The orbit data is extracted from the following two-line orbital elements,

1 27840U 03031A   17021.92488442 -.00000019 +00000-0 +76174-5 0  9991
2 27840 098.2001 025.7758 0097837 199.3007 160.4466 14.38873034712187
Epoch (UTC): 21 January 2017 22:11:50
Eccentricity: 0.0097837
inclination: 98.2001°
perigee height: 692 km
apogee height: 832 km
right ascension of ascending node: 25.7758°
argument of perigee: 199.3007°
revolutions per day: 14.38873034
mean anomaly at epoch: 160.4466°
orbit number at epoch: 71218

The dashed part of the orbit path shows where the satellite is in the earth's shadow,  

DLR